Terminal Aerodrome Forecast
Issued by NWS

Home | Current Version | Previous Version | Graphics & Text | Print | Product List | Glossary On
Versions: 1 2 3 4 5 6 7 8 9 10 11 12 13 14 15 16 17 18 19 20 21 22 23 24 25 26 27 28 29 30 31 32 33 34 35 36 37 38
000
FTUS43 KLOT 300500
TAFORD
TAF
KORD 300531Z 3006/3112 28005KT P6SM SCT060 SCT120 BKN250
     FM301500 32009KT P6SM SCT045 SCT090
     FM301900 33009KT P6SM VCSH BKN045
     FM302100 06010KT P6SM VCSH SCT045
     FM310200 25005KT P6SM SCT060=

USA.gov is the U.S. government's official web portal to all federal, state and local government web resources and services.